Weather History for Petrolina Airport, Brazil

Change the Weather History Date:

Thursday, March 13, 2014

  Actual Average Record
Temperature  
Mean Temperature 85 °F -  
Max Temperature 95 °F - - ()
Min Temperature 75 °F - - ()
Cooling Degree Days 20    
Growing Degree Days 35 (Base 50)    
Moisture  
Dew Point 63 °F    
Average Humidity 49    
Maximum Humidity 73    
Minimum Humidity 30    
Precipitation  
Precipitation 0.00 in - - ()
Sea Level Pressure  
Sea Level Pressure 29.95 in    
Wind  
Wind Speed 9 mph ()    
Max Wind Speed 15 mph    
Max Gust Speed -    
Visibility 6.2 miles    
Events      
T = Trace of Precipitation, MM = Missing Value Source: Averaged Metar Reports

Daily Weather History Graph

Daily Weather History Graph

Search for Another Location

Airport:

Trip Planner

Search our weather history database for the weather conditions in past years. The results will help you decide how hot, cold, wet, or windy it might be!

Date:

Astronomy

Mar. 13, 2014 Rise Set
Actual Time 5:46 AM BRT 5:56 PM BRT
Civil Twilight 5:25 AM BRT 6:17 PM BRT
Nautical Twilight 5:01 AM BRT 6:42 PM BRT
Astronomical Twilight 4:36 AM BRT 7:06 PM BRT
Moon 3:47 PM BRT (3/13) 3:09 AM BRT (3/13)
Length of Visible Light 12h 52m
Length of Day
12h 10m
Waxing Gibbous, 91% of the Moon is Illuminated
Mar 13
Waxing Gibbous
Mar 16
Full
Mar 23
Last Quarter
Mar 30
New
Apr 7
First Quarter

Hourly Weather History & Observations

Time (BRT) Temp. Heat Index Dew Point Humidity Pressure Visibility Wind Dir Wind Speed Gust Speed Precip Events Conditions
12:00 AM 80.6 °F 82.7 °F 66.2 °F 61% 29.98 in - ESE 9.2 mph - N/A   Clear
1:00 AM 78.8 °F - 66.2 °F 65% 29.98 in - ESE 8.1 mph - N/A   Clear
2:00 AM 78.8 °F - 64.4 °F 61% 29.95 in 6.2 mi East 12.7 mph - N/A   Scattered Clouds
3:00 AM 77.0 °F - 66.2 °F 69% 29.95 in 6.2 mi ESE 9.2 mph - N/A   Scattered Clouds
4:00 AM 77.0 °F - 66.2 °F 69% 29.95 in 6.2 mi ESE 9.2 mph - N/A   Scattered Clouds
5:00 AM 75.2 °F - 64.4 °F 69% 29.98 in 6.2 mi SE 8.1 mph - N/A   Scattered Clouds
6:00 AM 75.2 °F - 66.2 °F 73% 29.98 in 6.2 mi SE 9.2 mph - N/A   Partly Cloudy
7:00 AM 78.8 °F - 66.2 °F 65% 29.98 in - South 10.4 mph - N/A   Clear
8:00 AM 82.4 °F 83.9 °F 64.4 °F 54% 30.01 in 6.2 mi SE 15.0 mph - N/A   Partly Cloudy
9:00 AM 84.2 °F 85.6 °F 64.4 °F 51% 30.01 in 6.2 mi SE 8.1 mph - N/A   Scattered Clouds
10:00 AM 87.8 °F 88.5 °F 62.6 °F 43% 30.01 in 6.2 mi SE 10.4 mph - N/A   Mostly Cloudy
11:00 AM 91.4 °F 92.1 °F 62.6 °F 38% 30.01 in 6.2 mi SSE 11.5 mph - N/A   Mostly Cloudy
12:00 PM 91.4 °F 91.4 °F 60.8 °F 36% 29.98 in 6.2 mi ENE 9.2 mph - N/A   Mostly Cloudy
1:00 PM 93.2 °F 93.3 °F 60.8 °F 34% 29.92 in 6.2 mi East 12.7 mph - N/A   Mostly Cloudy
2:00 PM 95.0 °F 94.4 °F 59.0 °F 30% 29.89 in 6.2 mi East 11.5 mph - N/A   Mostly Cloudy
3:00 PM 93.2 °F 92.6 °F 59.0 °F 32% 29.89 in 6.2 mi SSE 9.2 mph - N/A   Mostly Cloudy
4:00 PM 93.2 °F 91.9 °F 57.2 °F 30% 29.86 in 6.2 mi SE 12.7 mph - N/A   Mostly Cloudy
5:00 PM 91.4 °F 90.7 °F 59.0 °F 34% 29.89 in 6.2 mi East 9.2 mph - N/A   Mostly Cloudy
6:00 PM 89.6 °F 89.5 °F 60.8 °F 38% 29.89 in 6.2 mi East 9.2 mph - N/A   Mostly Cloudy
7:00 PM 87.8 °F 87.6 °F 60.8 °F 40% 29.89 in 6.2 mi ENE 6.9 mph - N/A   Mostly Cloudy
8:00 PM 86.0 °F 86.1 °F 60.8 °F 43% 29.92 in 6.2 mi ENE 5.8 mph - N/A   Mostly Cloudy
9:00 PM 86.0 °F 86.6 °F 62.6 °F 45% 29.95 in - East 8.1 mph - N/A   Clear
10:00 PM 84.2 °F 85.0 °F 62.6 °F 48% 29.98 in - North 8.1 mph - N/A   Clear
11:00 PM 82.4 °F 83.4 °F 62.6 °F 51% 29.98 in - ESE 9.2 mph - N/A   Clear